SCP
0 0 0 0 0 0 0 0 0 0 0 0 0 0 0 0 1 1 1 1 1 0 0 0 0 0 1 1 1 1 1 1 1 2 2 2 2 1 1 1 1 1 1 1
0 0 0 0 0 0 0 0 0 0 0 0 0 0 0 0 1 1 1 1 1 0 0 0 0 1 1 1 1 1 1 2 2 2 2 2 2 1 1 1 0 0 0 0
0 0 0 0 0 0 0 0 0 0 0 0 0 0 0 0 0 1 1 1 1 1 0 1 1 1 1 1 2 2 2 2 2 2 2 2 2 1 1 0 0 0 0 0
0 0 0 0 0 0 0 0 0 0 0 0 0 0 0 0 0 0 1 1 0 0 0 1 1 1 1 2 2 2 2 2 2 2 2 2 1 1 0 0 0 0 0 0
0 0 0 0 0 0 0 0 0 0 0 0 0 0 0 0 0 0 0 0 0 0 0 0 0 1 1 1 2 2 2 1 1 1 1 1 1 0 0 0 0 0 0 0
0 0 0 0 0 0 0 0 0 0 0 0 0 0 0 0 0 0 0 0 0 0 0 0 0 0 1 1 1 1 1 1 1 1 1 0 0 0 0 0 0 0 0 0
0 0 0 0 0 0 0 0 0 0 0 0 0 0 0 0 0 0 0 0 0 0 0 0 0 0 0 0 1 1 1 1 1 0 0 0 0 0 0 0 0 0 0 0
0 0 0 0 0 0 0 0 0 0 0 0 0 0 0 0 0 0 0 0 0 0 0 0 0 0 0 0 0 0 0 0 0 0 0 0 0 0 0 0 0 0 0 0
0 0 0 0 0 0 0 0 0 0 0 0 0 0 0 0 0 0 0 -0 -0 -0 0 0 0 0 0 0 0 0 0 0 0 0 0 0 0 0 0 0 0 0 0 0
0 0 0 0 0 0 0 0 0 0 0 0 0 0 0 0 0 0 0 0 0 0 0 0 0 0 0 0 0 0 0 0 0 0 0 0 0 0 0 0 0 0 0 0
0 0 0 0 0 0 0 0 0 0 0 0 0 0 0 0 0 0 0 0 0 0 0 0 0 0 0 0 0 0 0 0 0 0 0 0 0 0 0 0 0 0 0 0
0 0 0 0 0 0 0 0 0 0 0 0 0 0 0 0 0 0 0 0 0 0 0 0 0 0 0 0 0 0 0 0 0 0 0 0 0 0 0 0 0 0 0 0
0 0 0 0 0 0 0 0 0 0 0 0 0 0 0 0 0 0 0 0 0 0 0 0 0 0 0 0 0 0 0 0 0 0 0 0 0 0 0 0 0 0 0 0
0 0 0 0 0 0 0 0 0 0 0 0 0 0 0 0 0 0 0 0 0 0 0 0 0 0 0 0 0 0 0 0 0 0 0 0 0 -0 0 0 0 0 0 0
0 0 0 0 0 0 0 0 0 0 0 0 0 0 0 0 0 0 0 0 0 0 0 0 0 0 0 0 0 0 0 0 0 0 0 0 0 0 0 0 0 0 0 0
0 0 0 0 0 0 0 0 0 0 0 0 0 0 0 0 0 0 0 0 0 0 0 0 0 0 0 0 0 0 0 0 0 0 0 0 0 0 0 0 0 0 0 0
0 0 0 0 0 0 0 0 0 0 0 0 0 0 0 0 0 0 0 0 0 0 0 0 0 0 0 0 0 0 0 0 0 0 0 0 0 0 0 0 0 0 0 0
0 0 0 0 0 0 0 0 0 0 0 0 0 0 0 0 0 0 0 0 0 0 0 0 0 0 0 0 0 0 0 0 0 0 0 0 0 0 0 0 0 0 0 0
0 0 0 0 0 0 0 0 0 0 0 0 0 0 0 0 0 0 0 0 0 0 0 0 0 0 0 0 0 0 0 0 0 0 0 0 0 0 0 0 0 0 0 0
0 0 0 0 0 0 0 0 0 0 0 0 0 0 0 0 0 0 0 0 0 0 0 0 0 0 0 0 0 0 0 0 0 0 0 0 0 0 0 0 0 0 0 0
0 0 0 0 0 0 0 0 0 0 0 0 0 0 0 0 0 0 0 0 0 0 0 0 0 0 0 0 0 0 0 0 0 0 0 0 0 0 0 0 0 0 0 0
0 0 0 0 0 0 0 0 0 0 0 0 0 0 0 0 0 0 0 0 0 0 0 0 0 0 0 0 0 0 0 0 0 0 0 0 0 0 0 0 0 0 0 0
0 0 0 0 0 0 0 0 0 0 0 0 0 0 0 0 0 0 0 0 0 0 0 0 0 0 0 0 0 0 0 0 0 0 0 0 0 0 0 0 0 0 0 0
0 0 0 0 0 0 0 0 0 0 0 0 0 0 0 0 0 0 0 0 0 0 0 0 0 0 0 0 0 0 0 0 0 0 0 0 0 0 0 0 0 0 0 0
0 0 0 0 0 0 0 0 0 0 0 0 0 0 0 0 0 0 0 0 0 0 0 0 0 0 0 0 0 0 0 0 0 0 0 0 0 0 0 0 0 0 0 0
0 0 0 0 0 0 0 0 0 0 0 0 0 0 0 0 0 0 0 0 0 0 0 0 0 0 0 0 0 0 0 0 0 0 0 0 0 0 0 0 0 0 0 0
Wind_Speed
3 4 3 6 6 4 1 2 5 6 5 3 4 6 9 3 3 2 2 3 4 5 4 4 4 3 3 5 6 7 8 8 7 5 6 5 4 3 3 3 4 4 3 2
5 3 7 5 4 3 2 2 4 6 5 4 3 5 7 7 4 4 5 5 4 4 4 4 3 2 3 3 4 5 6 6 7 6 5 3 3 2 2 2 3 2 3 3
1 5 5 1 2 2 1 1 2 4 5 6 4 5 6 6 6 9 9 5 4 4 3 3 3 2 1 1 3 3 4 5 6 5 3 3 2 2 2 1 1 1 3 2
3 4 4 2 1 2 1 1 1 2 3 4 3 3 4 6 6 7 8 7 7 6 4 3 3 3 2 1 2 3 3 2 2 4 5 6 4 3 3 2 1 0 1 1
4 3 3 2 1 0 2 2 1 1 2 1 3 1 6 4 5 6 6 7 7 6 5 4 3 3 2 1 1 4 5 4 3 1 3 4 2 2 2 2 2 1 1 1
5 3 2 2 1 1 1 5 6 5 4 1 2 1 6 4 3 5 6 6 6 5 4 3 3 2 2 2 1 2 5 5 6 6 4 4 5 5 4 3 2 1 1 0
6 6 3 0 1 4 6 6 5 6 4 5 2 2 9 5 4 4 6 7 6 5 4 4 4 3 2 2 2 2 3 4 5 6 6 5 5 5 5 4 3 2 1 0
2 6 4 2 1 2 2 6 5 3 4 5 4 6 7 3 3 4 6 7 7 6 5 5 5 4 4 4 4 4 4 4 5 5 5 5 5 4 3 3 3 2 1 0
5 5 3 3 2 5 4 3 5 6 1 3 6 7 9 3 6 7 8 8 9 8 7 7 6 5 6 6 6 5 5 4 4 5 6 6 5 5 4 3 2 1 1 1
8 4 3 0 3 6 2 6 5 4 2 4 7 5 6 6 9 10 10 10 10 8 7 7 6 6 6 6 5 5 4 5 4 5 6 5 5 4 4 3 3 2 2 2
4 4 3 3 1 1 3 3 4 4 4 5 5 9 8 9 9 9 10 9 9 9 8 7 6 5 5 5 4 3 3 2 3 4 5 6 5 4 4 3 3 2 2 3
3 5 2 5 3 1 4 6 7 4 4 4 3 12 8 7 8 7 9 9 8 8 7 6 6 5 4 3 2 1 1 2 2 2 3 5 5 5 4 4 3 3 4 5
6 6 3 8 6 1 3 4 3 5 4 5 5 12 6 4 6 6 8 9 8 7 6 4 3 2 1 0 1 1 1 0 0 2 4 5 5 4 4 4 4 5 5 6
7 5 7 8 9 5 4 5 5 6 5 6 11 13 13 12 10 9 8 8 8 7 5 3 2 0 2 2 2 1 2 1 0 2 4 5 5 4 4 4 5 5 5 6
5 4 6 8 7 4 6 7 7 9 10 11 11 11 15 12 8 7 7 6 6 6 4 3 3 2 2 2 0 1 2 1 1 1 2 3 3 3 4 4 5 5 5 5
3 3 3 5 6 6 7 11 9 10 8 9 8 12 14 8 5 6 7 7 7 6 4 4 4 4 4 4 3 3 2 1 1 2 1 2 3 3 4 4 5 6 6 5
2 4 3 5 4 2 8 11 8 7 8 9 11 14 7 5 8 8 8 8 8 7 6 5 5 5 6 5 5 4 2 0 2 3 3 3 4 4 4 5 6 6 5 4
7 6 4 2 1 7 12 5 6 7 9 10 9 8 7 9 6 7 7 8 8 7 7 6 5 5 4 4 3 3 2 2 2 3 3 4 4 5 5 6 6 5 4 4
5 7 4 3 4 9 9 7 7 7 10 8 10 11 7 2 2 7 8 9 10 8 7 6 6 5 4 4 3 3 2 2 3 3 4 4 5 5 5 5 5 4 4 4
4 4 4 4 4 8 12 7 3 4 7 8 8 10 6 5 2 9 6 6 8 7 6 6 5 4 4 4 3 4 4 3 4 4 4 4 4 5 5 5 4 3 4 6
4 2 2 5 7 11 9 4 4 4 10 4 5 9 7 10 12 7 2 3 5 7 7 6 6 5 5 4 5 5 5 5 4 4 4 4 4 4 4 4 3 5 6 7
3 3 4 3 4 10 5 2 6 9 5 5 6 8 10 12 11 7 5 4 5 7 7 7 7 6 5 5 6 5 5 4 4 5 5 5 4 3 4 5 5 5 7 8
6 8 6 8 10 10 5 7 8 6 7 9 8 10 10 11 12 9 7 7 8 8 8 7 7 6 5 5 6 7 5 5 5 5 5 4 4 4 4 5 6 6 5 6
7 4 3 7 11 11 12 10 10 11 11 12 11 10 9 12 13 10 8 7 8 9 9 8 8 7 6 6 7 6 5 6 6 6 5 4 4 4 3 4 5 6 6 6
8 3 4 9 12 10 11 12 13 14 12 11 11 10 10 11 13 11 9 9 10 10 9 8 9 10 9 8 7 7 7 8 7 6 6 5 4 4 4 3 2 4 4 6
2 4 4 8 12 11 13 13 12 13 14 14 13 13 11 11 14 12 11 10 11 11 10 9 10 10 9 8 8 8 9 9 9 7 6 5 4 4 4 5 5 6 4 7
Wind_Direction
42 57 280 243 207 210 253 297 299 285 301 335 341 342 339 330 225 253 273 283 287 281 314 346 329 292 239 217 210 206 201 201 189 182 183 184 189 189 195 191 182 174 163 143
31 305 257 237 206 209 235 305 310 306 334 12 360 7 0 28 31 35 28 11 355 339 342 348 339 318 264 233 219 213 209 203 197 195 185 173 163 160 161 148 141 133 107 78
265 270 309 76 88 126 163 172 287 298 328 4 14 357 7 359 23 38 33 19 356 336 328 342 341 334 300 229 215 202 203 205 205 192 166 138 120 111 127 142 134 69 69 63
304 298 360 38 52 82 314 252 285 311 6 327 7 305 332 340 356 25 21 15 4 353 344 345 353 351 355 69 125 132 140 176 206 193 181 173 175 179 183 166 170 51 35 25
292 304 344 325 275 331 273 3 49 64 152 334 355 252 289 338 345 348 360 3 355 351 351 351 357 354 347 358 111 131 134 147 141 185 191 168 152 151 135 139 165 191 270 297
260 278 255 252 51 17 28 56 40 41 76 247 262 238 273 252 262 305 327 338 339 336 339 341 345 360 347 340 343 147 156 163 159 159 172 175 167 158 156 169 182 203 227 281
332 324 319 310 56 22 61 66 14 353 4 254 278 233 246 225 213 247 279 292 299 302 306 310 318 323 314 305 289 246 193 179 174 166 164 171 164 161 169 170 178 177 161 44
304 301 305 337 190 174 106 129 155 233 247 284 309 249 257 240 232 242 253 263 271 269 267 269 272 279 283 279 272 251 222 204 186 173 159 146 147 151 156 164 165 159 148 348
194 256 302 25 38 128 134 152 159 140 211 280 281 295 300 263 270 261 258 259 258 258 263 266 268 267 268 272 270 260 236 217 196 173 152 147 158 160 154 157 149 126 80 32
168 221 275 167 73 38 68 139 102 125 188 269 288 278 254 263 257 258 255 255 260 263 266 268 267 262 260 260 266 267 249 220 194 174 161 158 170 164 152 142 113 82 61 53
161 181 294 5 75 285 98 92 104 117 159 176 266 270 230 231 241 250 259 260 263 268 272 276 278 272 263 259 254 247 239 223 191 175 165 158 160 152 140 122 96 73 55 48
117 125 251 283 284 233 191 178 153 165 226 190 213 269 261 245 262 262 270 275 273 271 273 278 282 283 274 262 265 271 240 225 207 165 151 150 147 141 127 106 87 68 64 60
137 109 23 338 340 328 116 144 152 133 128 168 194 263 285 283 289 275 267 275 281 283 287 289 289 292 294 56 69 5 307 269 166 139 143 148 149 139 126 112 95 85 77 68
115 127 171 215 236 232 222 192 167 147 174 215 223 251 283 285 282 283 276 275 282 282 280 267 254 192 83 74 57 342 314 331 57 150 158 164 163 151 136 119 105 97 87 78
114 186 227 240 246 228 238 235 197 198 205 211 235 240 259 264 263 266 269 278 284 283 268 226 181 160 131 114 102 282 286 321 65 121 162 173 163 143 128 116 109 101 91 83
109 204 226 270 260 239 255 257 237 225 226 229 248 262 256 259 254 258 261 264 267 262 242 213 184 173 174 180 199 223 244 291 79 99 106 130 135 130 121 115 113 106 97 88
173 169 178 261 281 325 269 247 231 223 220 202 224 244 261 257 249 245 247 242 242 241 228 214 204 197 195 195 195 203 212 184 91 91 94 104 113 108 102 109 112 112 107 99
166 151 170 229 169 230 241 234 201 221 246 222 232 251 238 234 250 242 226 224 234 227 221 214 205 198 196 193 196 205 201 175 132 114 113 115 114 109 107 110 114 115 112 108
159 147 150 162 225 263 281 257 203 204 261 238 226 248 247 227 316 285 236 213 220 214 208 204 197 189 186 196 200 195 204 191 165 150 141 136 130 124 120 120 123 123 121 106
72 108 138 167 215 251 248 253 178 142 268 259 215 239 231 139 283 274 263 213 218 205 191 187 179 171 186 205 187 187 200 192 189 176 158 145 140 137 135 132 124 116 116 110
3 13 201 215 232 262 262 277 135 183 243 272 223 232 211 198 222 231 214 200 205 193 186 174 168 179 201 195 178 191 196 201 191 153 137 133 135 140 138 127 119 123 118 110
236 259 249 218 233 263 272 151 193 228 262 286 266 244 228 230 243 242 232 226 202 190 181 170 171 192 204 189 180 191 202 193 153 139 135 131 132 139 136 127 122 125 125 118
220 206 208 206 227 248 256 229 240 243 262 268 264 257 240 239 245 240 229 219 205 195 187 177 176 185 198 191 184 193 198 162 146 141 142 136 124 115 129 137 137 133 133 131
272 237 224 267 270 269 271 265 266 263 254 255 254 256 244 237 243 236 222 208 201 196 190 180 172 182 199 198 195 197 175 159 151 153 151 143 134 124 122 136 149 151 153 147
246 264 247 260 274 287 281 271 266 273 272 263 260 253 242 237 241 228 214 204 201 197 189 181 184 192 200 195 195 188 172 162 159 158 154 149 146 141 129 116 128 158 164 166
253 232 264 278 284 283 278 273 274 275 274 271 267 267 256 231 235 224 212 204 196 194 187 187 194 199 200 193 194 186 177 170 163 162 161 158 151 144 138 127 96 63 118 150